Lone Rock, WI

8:25 PM CDT on May 25, 2017 (GMT -0500)
Tri-County Regional

Weather History for KLNR - January, 2012

Change the Weather History Date:

Tuesday, January 17, 2012

  Actual Average Record
Temperature  
Mean Temperature 19 °F -  
Max Temperature 32 °F 24 °F 42 °F (2015)
Min Temperature 3 °F 9 °F -11 °F (1997)
Degree Days  
Heating Degree Days 46    
Moisture  
Dew Point 17 °F    
Average Humidity 75    
Maximum Humidity 93    
Minimum Humidity 59    
Precipitation  
Precipitation 0.00 in - - ()
Sea Level Pressure  
Sea Level Pressure 29.93 in    
Wind  
Wind Speed 11 mph (NW)    
Max Wind Speed 18 mph    
Max Gust Speed 25 mph    
Visibility 3 miles    
Events Fog , Snow    
Averages and records for this station are not official NWS values.
T = Trace of Precipitation, MM = Missing Value Source: NWS Daily Summary

Daily Weather History Graph

Daily Weather History Graph

Search for Another Location

Airport or City:

Trip Planner

Search our weather history database for the weather conditions in past years. The results will help you decide how hot, cold, wet, or windy it might be!

Date:

Astronomy

Jan. 17, 2012 Rise Set
Actual Time 7:29 AM CST 4:52 PM CST
Civil Twilight 6:57 AM CST 5:24 PM CST
Nautical Twilight 6:22 AM CST 5:59 PM CST
Astronomical Twilight 5:48 AM CST 6:33 PM CST
Moon 1:47 AM CST (1/17) 11:46 AM CST (1/17)
Length of Visible Light 10h 26m
Length of Day
9h 23m
Waning Crescent, 35% of the Moon is Illuminated
Jan 17
Waning Crescent
Jan 23
New
Jan 30
First Quarter
Feb 7
Full
Feb 14
Last Quarter

Hourly Weather History & Observations

Time (CST) Temp. Windchill Dew Point Humidity Pressure Visibility Wind Dir Wind Speed Gust Speed Precip Events Conditions
12:56 AM 32.0 °F 24.2 °F 25.0 °F 75% 29.76 in 4.0 mi NNE 9.2 mph - N/A   Haze
1:56 AM 32.0 °F 23.6 °F 25.0 °F 75% 29.75 in 4.0 mi NNE 10.4 mph - N/A   Haze
2:56 AM 32.0 °F 23.0 °F 25.0 °F 75% 29.75 in 3.0 mi NNE 11.5 mph - N/A   Haze
3:56 AM 32.0 °F 23.0 °F 25.0 °F 75% 29.75 in 3.0 mi NNE 11.5 mph 20.7 mph N/A   Haze
4:56 AM 30.9 °F 21.7 °F 25.0 °F 79% 29.75 in 4.0 mi North 11.5 mph 23.0 mph N/A   Haze
5:38 AM 28.4 °F 16.2 °F 23.0 °F 80% 29.73 in 1.8 mi North 17.3 mph 25.3 mph 0.00 in Snow Light Snow
5:56 AM 28.9 °F 16.5 °F 23.0 °F 78% 29.74 in 0.5 mi North 18.4 mph 25.3 mph 0.00 in Snow Snow
6:32 AM 28.4 °F 18.0 °F 23.0 °F 80% 29.77 in 1.0 mi NNW 12.7 mph 19.6 mph 0.00 in Snow Light Snow
6:41 AM 28.4 °F 18.5 °F 23.0 °F 80% 29.78 in 0.5 mi NNW 11.5 mph - 0.00 in Snow Snow
6:49 AM 28.4 °F 19.1 °F 23.0 °F 80% 29.79 in 0.2 mi NW 10.4 mph - 0.00 in Snow Heavy Snow
6:56 AM 27.0 °F 19.5 °F 23.0 °F 85% 29.81 in 0.2 mi Variable 6.9 mph 18.4 mph 0.00 in Fog , Snow Heavy Snow
7:02 AM 26.6 °F 18.2 °F 24.8 °F 93% 29.81 in 0.2 mi NW 8.1 mph - 0.00 in Fog , Snow Snow
7:33 AM 26.6 °F 16.8 °F 23.0 °F 86% 29.82 in 0.5 mi NNW 10.4 mph - 0.00 in Fog , Snow Snow
7:46 AM 26.6 °F 19.1 °F 23.0 °F 86% 29.83 in 0.2 mi WNW 6.9 mph - 0.00 in Fog , Snow Snow
7:56 AM 26.1 °F 15.6 °F 23.0 °F 88% 29.85 in 0.2 mi NW 11.5 mph 16.1 mph 0.00 in Fog , Snow Snow
8:11 AM 26.6 °F 17.5 °F 23.0 °F 86% 29.84 in 0.2 mi NW 9.2 mph - 0.00 in Fog , Snow Snow
8:25 AM 26.6 °F 16.8 °F 21.2 °F 80% 29.85 in 0.2 mi NW 10.4 mph 17.3 mph 0.00 in Fog , Snow Snow
8:48 AM 26.6 °F 16.8 °F 21.2 °F 80% 29.85 in 0.2 mi NNW 10.4 mph - 0.00 in Fog , Snow Light Snow
8:56 AM 26.1 °F 15.6 °F 21.0 °F 81% 29.87 in 0.2 mi NNW 11.5 mph 20.7 mph 0.00 in Snow Heavy Snow
9:35 AM 26.6 °F 16.2 °F 21.2 °F 80% 29.88 in 0.5 mi NW 11.5 mph - 0.00 in Snow Snow
10:50 AM 24.8 °F 14.6 °F 17.6 °F 74% 29.93 in 1.0 mi NNW 10.4 mph 21.9 mph 0.00 in Snow Light Snow
10:51 AM 25.0 °F 15.5 °F 18.0 °F 75% 29.94 in 1.2 mi NNW 9.2 mph 19.6 mph 0.00 in Snow Light Snow
11:08 AM 24.8 °F 12.4 °F 17.6 °F 74% 29.94 in 1.0 mi NW 15.0 mph 21.9 mph 0.00 in Snow Light Snow
11:17 AM 24.8 °F 13.4 °F 17.6 °F 74% 29.94 in 0.5 mi NNW 12.7 mph 23.0 mph 0.00 in Snow Snow
11:52 AM 24.8 °F 13.4 °F 17.6 °F 74% 29.94 in 1.0 mi NW 12.7 mph 20.7 mph 0.00 in Snow Light Snow
11:53 AM 24.8 °F 13.4 °F 17.6 °F 74% 29.94 in 0.8 mi NNW 12.7 mph 20.7 mph 0.00 in Snow Light Snow
12:00 PM 24.8 °F 12.4 °F 15.8 °F 69% 29.94 in 1.0 mi NNW 15.0 mph 24.2 mph 0.00 in Snow Light Snow
1:07 PM 21.2 °F 7.3 °F 14.0 °F 74% 29.97 in 2.5 mi NW 16.1 mph 23.0 mph 0.00 in   Haze
1:56 PM 21.9 °F 9.2 °F 12.9 °F 68% 30.00 in 4.0 mi WNW 13.8 mph 21.9 mph 0.00 in   Haze
2:44 PM 21.2 °F 8.3 °F 10.4 °F 63% 30.03 in 5.0 mi WNW 13.8 mph 23.0 mph N/A   Haze
2:56 PM 21.0 °F 6.2 °F 10.9 °F 65% 30.06 in 6.0 mi WNW 18.4 mph 24.2 mph N/A   Haze
3:56 PM 19.9 °F 5.2 °F 10.0 °F 65% 30.11 in 7.0 mi WNW 17.3 mph 23.0 mph N/A   Clear
5:56 PM 16.0 °F 0.6 °F 6.1 °F 65% 30.18 in 10.0 mi WNW 16.1 mph 24.2 mph N/A   Clear
6:56 PM 15.1 °F 0.5 °F 3.0 °F 59% 30.21 in 10.0 mi NW 13.8 mph - N/A   Clear
8:56 PM 12.0 °F 1.5 °F 1.0 °F 61% 30.26 in 10.0 mi WNW 6.9 mph - N/A   Clear
9:56 PM 10.9 °F 0.2 °F -0.0 °F 61% 30.27 in 10.0 mi West 6.9 mph - N/A   Clear
10:56 PM 6.1 °F -5.6 °F -2.9 °F 67% 30.28 in 9.0 mi West 6.9 mph - N/A   Clear
11:56 PM 3.0 °F -6.4 °F -4.0 °F 73% 30.30 in 9.0 mi West 4.6 mph - N/A   Clear